sat.trackr.live / text

‹ back to catalog

STARLINK-32679

NORAD 62507 · 2025-003W

PAYLOAD ACTIVE UNKNOWN

§ Identity

Operator
Country
US
Launch date
2025-01-06
Launch site
AFETR
Launch vehicle
Mass (kg)
RCS (m²)

Purposes: comms

External: N2YO · Heavens-Above · Gunter

§ Orbital elements

Epoch: 2026-09-21T07:18:51.228576Z

Period
94.27 min
Inclination
43.0022°
Eccentricity
0.0001271
Mean motion
15.27598105 rev/d
Perigee alt
482.1 km
Apogee alt
483.9 km
Semi-major
6,861.1 km
B*
4.0542e-4
RAAN
264.6061°
Arg perigee
269.6326°
Mean anomaly
90.4380°
Rev number
9,658

§ Raw data

STARLINK-326791 62507U 25003W   26264.30475959  .00010917  00000+0  40542-3 0  99972 62507  43.0022 264.6061 0001271 269.6326  90.4380 15.27598105 96588

JSON: /api/v1/satellites/62507 · /tle

For live sub-satellite position, see the globe view (requires WebGL).

§ Visibility from observer

Set your observer location to see the next 7 days of passes ≥ 10°. The values pass through the URL so the page stays shareable.

No JS? Fill the form by hand. The geolocation button needs JavaScript.